Location: Garos
(43.5000°N, 0.4667°W)
Time: 03:15:17
(UTC+00:00)

Cosmos 44 Rocket - Pass Details

Date: 03 February 2023
Orbit: 646 x 741 km, 65.1° (Epoch: 26 March)

Event Time Altitude Azimuth Distance (km) Brightness Sun altitude
Rises 19:42:48 0° 223° (SW) 2,951 7.1 -26.9°
Reaches altitude 10° 19:45:06 10° 227° (SW) 2,051 6.2 -27.3°
Enters shadow 19:49:25 58° 290° (WNW) 772 3.7 -28.1°
